Taos, NM

10:44 PM MDT on June 26, 2017 (GMT -0600)
Taos Municipal

Weather History for KSKX - April, 2013

Change the Weather History Date:

Monday, April 8, 2013

  Actual Average Record
Temperature  
Mean Temperature 47 °F -  
Max Temperature 66 °F 55 °F 69 °F (2012)
Min Temperature 28 °F 24 °F 12 °F (2003)
Degree Days  
Heating Degree Days 18    
Moisture  
Dew Point 18 °F    
Average Humidity 30    
Maximum Humidity 48    
Minimum Humidity 15    
Precipitation  
Precipitation 0.00 in - - ()
Sea Level Pressure  
Sea Level Pressure 29.68 in    
Wind  
Wind Speed 10 mph (SW)    
Max Wind Speed 31 mph    
Max Gust Speed 51 mph    
Visibility 10 miles    
Events      
Averages and records for this station are not official NWS values.
T = Trace of Precipitation, MM = Missing Value Source: NWS Daily Summary

Daily Weather History Graph

Daily Weather History Graph

Search for Another Location

Airport or City:

Trip Planner

Search our weather history database for the weather conditions in past years. The results will help you decide how hot, cold, wet, or windy it might be!

Date:

Astronomy

Apr. 08, 2013 Rise Set
Actual Time 6:38 AM MDT 7:31 PM MDT
Civil Twilight 6:12 AM MDT 7:57 PM MDT
Nautical Twilight 5:41 AM MDT 8:28 PM MDT
Astronomical Twilight 5:09 AM MDT 9:00 PM MDT
Moon 5:27 AM MDT (4/8) 6:09 PM MDT (4/8)
Length of Visible Light 13h 45m
Length of Day
12h 52m
Waning Crescent, 3% of the Moon is Illuminated
Apr 8
Waning Crescent
Apr 10
New
Apr 18
First Quarter
Apr 25
Full
May 2
Last Quarter

Hourly Weather History & Observations

Time (MDT) Temp. Windchill Dew Point Humidity Pressure Visibility Wind Dir Wind Speed Gust Speed Precip Events Conditions
12:15 AM 41.0 °F 35.2 °F 12.2 °F 31% 29.86 in 10.0 mi East 9.2 mph - N/A   Clear
12:35 AM 39.2 °F 35.0 °F 14.0 °F 36% 29.86 in 10.0 mi ENE 5.8 mph - N/A   Clear
12:55 AM 37.4 °F 34.9 °F 12.2 °F 36% 29.86 in 10.0 mi North 3.5 mph - N/A   Clear
1:15 AM 37.4 °F 34.9 °F 14.0 °F 38% 29.85 in 10.0 mi ENE 3.5 mph - N/A   Clear
1:35 AM 37.4 °F 32.8 °F 12.2 °F 36% 29.85 in 10.0 mi North 5.8 mph - N/A   Clear
1:55 AM 35.6 °F 30.7 °F 14.0 °F 41% 29.84 in 10.0 mi North 5.8 mph - N/A   Clear
2:15 AM 35.6 °F 28.6 °F 12.2 °F 38% 29.84 in 10.0 mi North 9.2 mph - N/A   Clear
2:35 AM 37.4 °F - 14.0 °F 38% 29.84 in 10.0 mi Calm Calm - N/A   Mostly Cloudy
2:55 AM 37.4 °F - 15.8 °F 41% 29.83 in 10.0 mi Calm Calm - N/A   Scattered Clouds
3:15 AM 33.8 °F - 12.2 °F 41% 29.83 in 10.0 mi Calm Calm - N/A   Clear
3:35 AM 35.6 °F 32.8 °F 12.2 °F 38% 29.83 in 10.0 mi NNW 3.5 mph - N/A   Partly Cloudy
3:55 AM 32.0 °F 27.5 °F 10.4 °F 41% 29.82 in 10.0 mi NE 4.6 mph - N/A   Clear
4:15 AM 33.8 °F 30.8 °F 12.2 °F 41% 29.82 in 10.0 mi SE 3.5 mph - N/A   Clear
4:35 AM 32.0 °F 27.5 °F 12.2 °F 44% 29.81 in 10.0 mi ESE 4.6 mph - N/A   Clear
4:55 AM 33.8 °F 29.6 °F 15.8 °F 48% 29.81 in 10.0 mi East 4.6 mph - N/A   Clear
5:15 AM 32.0 °F - 12.2 °F 44% 29.81 in 10.0 mi Calm Calm - N/A   Clear
5:35 AM 30.2 °F - 10.4 °F 44% 29.80 in 10.0 mi Calm Calm - N/A   Clear
5:55 AM 30.2 °F 23.4 °F 12.2 °F 47% 29.79 in 10.0 mi ESE 6.9 mph - N/A   Clear
6:15 AM 28.4 °F - 10.4 °F 47% 29.80 in 10.0 mi Calm Calm - N/A   Clear
6:35 AM 30.2 °F - 12.2 °F 47% 29.80 in 10.0 mi Calm Calm - N/A   Clear
6:55 AM 30.2 °F 25.4 °F 10.4 °F 44% 29.80 in 10.0 mi ESE 4.6 mph - N/A   Clear
7:15 AM 33.8 °F 27.7 °F 15.8 °F 48% 29.80 in 10.0 mi ESE 6.9 mph - N/A   Clear
7:35 AM 39.2 °F 34.2 °F 17.6 °F 42% 29.80 in 10.0 mi East 6.9 mph - N/A   Clear
7:55 AM 44.6 °F 42.2 °F 19.4 °F 37% 29.80 in 10.0 mi ESE 4.6 mph - N/A   Clear
8:15 AM 48.2 °F - 21.2 °F 34% 29.80 in 10.0 mi SE 5.8 mph - N/A   Clear
8:35 AM 48.2 °F - 21.2 °F 34% 29.80 in 10.0 mi South 3.5 mph - N/A   Clear
8:55 AM 50.0 °F - 21.2 °F 32% 29.79 in 10.0 mi West 4.6 mph - N/A   Clear
9:15 AM 51.8 °F - 23.0 °F 33% 29.79 in 10.0 mi WSW 5.8 mph - N/A   Clear
9:35 AM 53.6 °F - 24.8 °F 33% 29.78 in 10.0 mi WSW 9.2 mph - N/A   Clear
9:55 AM 53.6 °F - 24.8 °F 33% 29.78 in 10.0 mi South 11.5 mph - N/A   Clear
10:15 AM 55.4 °F - 24.8 °F 31% 29.77 in 10.0 mi SSW 8.1 mph - N/A   Clear
10:35 AM 55.4 °F - 24.8 °F 31% 29.76 in 10.0 mi WSW 16.1 mph 19.6 mph N/A   Clear
10:55 AM 55.4 °F - 24.8 °F 31% 29.75 in 10.0 mi SW 6.9 mph - N/A   Clear
11:15 AM 57.2 °F - 23.0 °F 27% 29.74 in 10.0 mi WSW 4.6 mph 18.4 mph N/A   Clear
11:35 AM 59.0 °F - 23.0 °F 25% 29.72 in 10.0 mi SW 15.0 mph 21.9 mph N/A   Partly Cloudy
11:55 AM 59.0 °F - 24.8 °F 27% 29.71 in 10.0 mi SSW 11.5 mph 23.0 mph N/A   Clear
12:15 PM 60.8 °F - 24.8 °F 25% 29.69 in 10.0 mi SW 17.3 mph 23.0 mph N/A   Partly Cloudy
12:35 PM 60.8 °F - 24.8 °F 25% 29.68 in 10.0 mi SW 17.3 mph 29.9 mph N/A   Partly Cloudy
12:55 PM 62.6 °F - 24.8 °F 24% 29.66 in 10.0 mi SW 24.2 mph 29.9 mph N/A   Partly Cloudy
1:15 PM 62.6 °F - 23.0 °F 22% 29.65 in 10.0 mi SW 20.7 mph 29.9 mph N/A   Clear
1:35 PM 64.4 °F - 21.2 °F 19% 29.64 in 10.0 mi SW 25.3 mph 34.5 mph N/A   Clear
1:55 PM 64.4 °F - 21.2 °F 19% 29.62 in 10.0 mi SSW 25.3 mph 35.7 mph N/A   Clear
2:15 PM 64.4 °F - 21.2 °F 19% 29.61 in 10.0 mi SW 21.9 mph 33.4 mph N/A   Clear
2:35 PM 64.4 °F - 21.2 °F 19% 29.59 in 10.0 mi SSW 26.5 mph 34.5 mph N/A   Partly Cloudy
2:55 PM 64.4 °F - 19.4 °F 18% 29.58 in 10.0 mi SSW 23.0 mph 29.9 mph N/A   Scattered Clouds
3:15 PM 66.2 °F - 19.4 °F 17% 29.55 in 10.0 mi SW 24.2 mph 36.8 mph N/A   Partly Cloudy
3:35 PM 66.2 °F - 19.4 °F 17% 29.53 in 10.0 mi SW 24.2 mph 36.8 mph N/A   Partly Cloudy
3:55 PM 66.2 °F - 17.6 °F 15% 29.52 in 10.0 mi SW 28.8 mph 39.1 mph N/A   Clear
4:15 PM 64.4 °F - 17.6 °F 16% 29.51 in 10.0 mi SW 31.1 mph 36.8 mph N/A   Clear
4:35 PM 64.4 °F - 17.6 °F 16% 29.51 in 10.0 mi SSW 24.2 mph 34.5 mph N/A   Partly Cloudy
4:55 PM 60.8 °F - 17.6 °F 19% 29.51 in 10.0 mi WSW 16.1 mph 34.5 mph N/A   Mostly Cloudy
5:15 PM 60.8 °F - 19.4 °F 20% 29.51 in 8.0 mi SW 10.4 mph 39.1 mph N/A   Overcast
5:35 PM 60.8 °F - 19.4 °F 20% 29.51 in 10.0 mi SW 24.2 mph 36.8 mph N/A   Mostly Cloudy
5:55 PM 62.6 °F - 17.6 °F 18% 29.49 in 10.0 mi SSW 26.5 mph 35.7 mph N/A   Mostly Cloudy
6:15 PM 62.6 °F - 15.8 °F 16% 29.48 in 10.0 mi SSW 26.5 mph 33.4 mph N/A   Mostly Cloudy
6:35 PM 62.6 °F - 15.8 °F 16% 29.49 in 9.0 mi SW 25.3 mph 43.7 mph N/A   Scattered Clouds
6:55 PM 60.8 °F - 14.0 °F 16% 29.49 in 10.0 mi SW 24.2 mph 33.4 mph N/A   Clear
7:15 PM 60.8 °F - 12.2 °F 15% 29.49 in 10.0 mi SW 24.2 mph 38.0 mph N/A   Clear
7:35 PM 60.8 °F - 14.0 °F 16% 29.51 in 10.0 mi SW 18.4 mph 24.2 mph N/A   Scattered Clouds
7:55 PM 59.0 °F - 15.8 °F 19% 29.51 in 10.0 mi SW 17.3 mph 28.8 mph N/A   Overcast
8:15 PM 55.4 °F - 21.2 °F 26% 29.50 in 10.0 mi South 9.2 mph 24.2 mph N/A   Mostly Cloudy
8:35 PM 57.2 °F - 19.4 °F 23% 29.50 in 10.0 mi South 9.2 mph 19.6 mph N/A   Mostly Cloudy
8:55 PM 55.4 °F - 17.6 °F 23% 29.50 in 10.0 mi South 9.2 mph - N/A   Partly Cloudy
9:15 PM 57.2 °F - 17.6 °F 21% 29.50 in 10.0 mi SSW 21.9 mph 33.4 mph N/A   Partly Cloudy
9:35 PM 57.2 °F - 17.6 °F 21% 29.53 in 3.0 mi SW 25.3 mph 50.6 mph N/A   Mostly Cloudy
9:55 PM 55.4 °F - 19.4 °F 25% 29.53 in 10.0 mi West 24.2 mph - N/A   Overcast
10:15 PM 53.6 °F - 24.8 °F 33% 29.54 in 10.0 mi WNW 15.0 mph - N/A   Overcast
10:35 PM 51.8 °F - 24.8 °F 35% 29.55 in 10.0 mi NW 13.8 mph 20.7 mph N/A   Overcast
10:55 PM 51.8 °F - 24.8 °F 35% 29.55 in 10.0 mi NNW 10.4 mph - N/A   Overcast
11:15 PM 51.8 °F - 24.8 °F 35% 29.56 in 10.0 mi NE 8.1 mph - N/A   Overcast
11:35 PM 51.8 °F - 24.8 °F 35% 29.58 in 10.0 mi NNE 5.8 mph - N/A   Overcast
11:55 PM 50.0 °F - 24.8 °F 37% 29.62 in 9.0 mi West 11.5 mph 16.1 mph N/A   Overcast